Location: Newark
(43.0000°N, 1.6781°W)
Time: 01:22:42
(UTC+00:00)

Vanguard 1 Rocket - Pass Details

Date: 23 April 2021
Orbit: 652 x 4224 km, 34.3° (Epoch: 06 May)

Event Time Altitude Azimuth Distance (km) Brightness Sun altitude
Rises 11:22:25 0° 223° (SW) 5,419 11.6 58.3°
Reaches altitude 10° 11:27:33 10° 210° (SSW) 3,761 11.0 58.6°
Maximum altitude 11:33:48 21° 165° (SSE) 2,251 10.4 59.0°
Drops below altitude 10° 11:38:09 10° 116° (ESE) 2,511 10.1 59.1°
Sets 11:40:46 0° 99° (E) 3,216 10.4 59.3°
